Regional Weather Roundup
Issued by NWS

Home | Current Version | Previous Version | Graphics & Text | Print | Product List | Glossary On
Versions: 1 2 3 4 5 6 7 8 9 10 11 12 13 14 15 16 17 18 19 20 21 22 23 24 25 26 27 28 29 30 31 32 33 34 35 36 37 38 39 40 41 42 43 44 45 46 47 48 49 50
000
ASUS43 KBIS 251510
RWRND

NORTH DAKOTA REGIONAL WEATHER ROUNDUP
NATIONAL WEATHER SERVICE BISMARCK ND
900 AM CST SAT FEB 25 2017

NOTE: "FAIR" INDICATES FEW OR NO CLOUDS BELOW 12,000 FEET WITH NO
SIGNIFICANT WEATHER AND/OR OBSTRUCTIONS TO VISIBILITY.


NDZ001>003-009>011-017-251600-
NORTHWEST NORTH DAKOTA

CITY           SKY/WX    TMP DP  RH WIND       PRES   REMARKS
WILLISTON      CLOUDY    18  17  96 NW6       29.91F FOG     WCI  10
MINOT          FAIR      21  16  81 W13       29.88S WCI   9
$$

NDZ018>021-031>035-040>046-251600-
SOUTHWEST NORTH DAKOTA

CITY           SKY/WX    TMP DP  RH WIND       PRES   REMARKS
BISMARCK       LGT SNOW  23  18  81 W5        29.89F WCI  17
DICKINSON      CLOUDY    22  19  89 NW12      29.84S WCI  10
GARRISON         N/A     19  17  92 N18       29.88S WCI   4
HETTINGER ARPT CLOUDY    25  21  85 W10       29.86F WCI  15
$$

NDZ004>008-012>016-024-026-027-054-251600-
NORTHEAST NORTH DAKOTA

CITY           SKY/WX    TMP DP  RH WIND       PRES   REMARKS
GRAND FORKS    CLOUDY    25  16  68 SW12      29.87F WCI  14
GRND FRKS AFB  CLOUDY    24  18  77 SW8       29.87F WCI  15
DEVILS LAKE    CLOUDY    21  19  92 W9        29.85F WCI  11
$$

NDZ022-023-025-028>030-036>039-047>053-251600-
SOUTHEAST NORTH DAKOTA

CITY           SKY/WX    TMP DP  RH WIND       PRES   REMARKS
FARGO          CLOUDY    22  17  81 S12       29.92F WCI  10
JAMESTOWN      PTSUNNY   22  17  81 W8        29.87F WCI  12
$$




USA.gov is the U.S. government's official web portal to all federal, state and local government web resources and services.